Wind_Speed
44 41 38 35 31 29 31 29 30 32 31 27 26 26 26 26 27 28 28 28 28 27 27 28 29 27 29 30 31 29 27 25 22 21 24 25 24 23 22 21 21 21 21 21 22 23 24 24 25
48 45 42 37 34 34 31 32 34 32 33 29 27 28 26 26 27 27 30 29 30 30 30 30 32 32 33 36 31 30 27 23 22 23 27 27 27 26 26 26 25 26 27 28 29 30 31 30 31
52 48 44 40 38 37 36 33 36 37 36 32 30 31 30 30 29 29 30 32 32 30 31 32 34 36 35 37 30 29 25 22 23 25 28 31 30 30 30 31 32 32 32 31 30 33 34 37 40
54 50 46 43 42 39 39 37 35 36 37 36 35 32 31 33 31 31 33 32 33 33 32 34 36 37 38 34 33 28 27 25 26 28 29 31 33 35 34 34 35 37 38 39 42 42 42 46 47
57 51 46 44 45 43 41 40 39 37 35 35 36 33 33 34 34 33 33 33 34 33 34 35 37 37 37 37 32 28 28 30 28 29 31 34 36 39 40 39 40 40 43 45 47 46 48 50 50
61 54 47 49 48 47 45 44 42 39 34 34 35 33 35 36 35 34 33 34 34 35 34 36 37 36 36 35 34 30 30 33 33 33 35 35 38 42 45 44 46 46 47 48 50 52 58 57 58
64 57 52 51 49 47 47 47 45 40 37 35 36 36 37 38 36 34 32 33 32 33 36 35 35 35 35 35 31 31 32 34 37 37 38 42 46 48 49 48 49 51 53 53 56 59 60 62 64
67 60 57 54 51 50 48 48 47 45 41 39 38 36 35 35 35 34 33 33 34 36 37 36 36 40 37 38 39 41 42 39 40 43 46 47 50 53 51 53 54 56 57 60 66 66 69 70 71
70 64 58 59 56 54 51 50 48 47 43 41 39 36 34 36 36 35 36 35 34 33 34 36 37 38 40 41 43 44 42 42 44 48 50 52 55 56 57 58 59 64 63 68 69 75 76 74 76
70 66 63 62 59 57 54 52 48 47 43 41 39 38 37 37 38 38 37 35 35 36 40 40 42 43 44 44 43 46 48 46 46 49 52 55 58 61 62 62 67 64 70 72 77 78 75 74 73
67 67 65 63 61 59 57 54 50 47 46 43 39 40 41 41 40 40 38 38 39 40 42 44 46 46 47 46 46 49 51 53 53 54 55 59 61 64 65 68 71 74 74 73 71 66 62 63 65
66 66 66 64 61 59 59 56 54 49 47 45 41 40 41 43 43 42 40 40 40 42 44 46 47 48 46 46 50 53 57 56 56 58 60 64 66 68 70 73 74 71 63 59 58 55 58 58 57
66 66 65 66 64 60 59 57 54 51 48 46 44 44 44 43 41 41 41 41 42 45 47 48 49 47 47 53 56 57 59 60 61 63 64 64 68 73 71 68 60 58 55 53 49 50 43 38 35
66 66 65 64 63 59 58 56 52 50 49 47 46 46 45 44 43 43 42 41 44 46 47 47 47 49 53 58 56 57 59 60 59 60 61 68 72 72 64 63 61 56 52 46 50 36 34 31 31
70 67 66 62 60 57 55 51 50 48 45 47 46 47 44 43 43 43 42 44 46 46 46 45 46 51 52 48 52 56 59 58 61 66 69 69 65 65 59 58 54 50 44 39 37 32 29 30 29
73 68 66 61 59 56 53 51 48 46 46 46 47 47 45 43 42 42 42 43 43 43 43 44 44 43 47 50 50 53 59 63 67 68 62 61 64 63 60 54 48 44 39 39 36 30 24 23 23
76 65 62 61 58 56 53 50 47 47 47 46 46 45 42 39 40 41 41 42 42 44 44 45 47 45 48 51 56 62 64 63 62 63 61 59 59 62 56 47 41 38 38 34 28 23 23 24 25
72 67 63 61 59 57 54 51 48 46 46 45 43 40 39 38 39 40 42 44 44 46 47 47 47 49 53 56 58 58 58 61 63 63 62 59 56 55 50 40 38 36 31 28 24 24 25 24 23
76 71 69 64 60 59 55 50 47 45 42 40 39 40 41 40 41 44 45 46 48 50 50 49 49 50 52 55 57 59 61 62 62 63 63 57 54 51 41 36 35 32 29 27 27 27 28 30 29
76 72 69 66 61 59 54 50 48 46 43 40 40 42 44 44 46 47 48 49 50 50 51 52 53 54 56 58 59 62 62 62 62 63 64 56 50 44 36 34 33 29 29 30 31 31 32 34 33
77 73 70 67 62 59 55 51 48 47 45 44 45 47 48 49 50 52 53 51 51 53 53 53 55 57 58 60 61 62 63 64 66 64 64 55 47 39 36 35 34 31 32 34 34 34 35 36 37
77 73 72 69 65 59 55 52 51 50 49 49 49 51 53 54 55 55 55 56 57 57 58 57 56 58 60 63 63 65 66 66 68 67 62 52 45 37 36 35 35 34 33 35 37 38 40 40 40
75 72 71 70 66 61 57 54 53 54 55 56 55 55 56 57 57 57 58 59 60 61 62 62 63 64 66 69 71 72 69 69 70 66 57 48 42 36 36 36 37 37 38 40 41 43 42 44 44
72 69 68 69 67 62 59 55 56 57 58 58 59 59 59 60 60 60 62 62 63 64 65 68 69 71 74 77 77 74 72 71 68 58 48 44 38 34 37 38 40 40 41 42 43 44 46 47 50
70 68 66 67 65 62 62 59 60 61 62 62 62 63 63 64 65 65 65 66 67 69 70 72 73 76 78 79 77 73 72 68 58 49 44 39 35 35 39 42 42 43 43 44 46 48 50 52 56
71 69 66 64 63 65 66 62 64 64 64 64 65 66 66 67 67 69 70 70 72 73 75 76 79 82 82 77 73 72 66 55 49 44 39 33 33 38 40 41 43 46 47 47 50 53 54 58 61
70 68 65 64 62 61 61 60 61 61 63 64 65 67 67 68 70 72 73 74 76 78 80 82 86 82 76 72 68 59 51 47 44 39 32 33 37 41 41 44 47 49 51 53 56 58 62 66 67
70 68 66 63 61 58 58 59 60 63 65 67 68 69 70 71 73 76 77 79 81 82 84 85 80 74 67 57 51 49 45 40 33 31 34 39 42 44 47 50 52 55 57 58 61 66 69 69 72
69 67 64 62 59 57 58 59 64 68 71 72 73 73 75 78 79 81 82 83 85 84 78 72 68 58 49 46 43 38 32 31 33 36 41 46 48 50 53 55 58 61 63 66 69 71 73 76 78
66 65 63 61 60 60 63 66 71 75 76 77 77 78 80 81 84 85 83 78 71 67 62 55 46 42 37 32 31 32 35 37 39 44 47 49 52 56 59 62 65 68 70 73 74 77 79 81 84
Wind_Direction
250 249 250 252 251 255 250 254 253 252 258 256 253 253 258 260 261 265 271 276 283 287 293 299 300 305 307 312 312 311 311 313 303 304 318 321 315 306 301 294 289 288 284 281 280 280 280 278 276
247 249 249 249 253 256 254 253 255 256 259 258 253 252 256 261 261 268 272 276 279 284 289 296 299 302 303 309 307 306 308 301 295 299 307 316 314 307 302 294 288 286 284 283 284 284 282 281 283
246 247 247 247 248 252 255 256 257 258 260 261 258 260 262 264 267 269 273 276 280 287 292 293 294 299 302 308 304 302 307 299 297 298 304 311 311 311 303 298 296 293 289 281 289 292 284 287 292
244 245 246 246 244 247 250 252 256 255 257 259 262 262 263 265 270 272 277 277 284 286 289 291 294 299 303 305 304 299 304 295 297 292 297 298 301 304 300 297 297 296 294 291 289 293 294 294 293
243 243 244 244 244 244 247 250 252 254 256 260 262 263 265 267 270 276 282 281 285 285 290 293 297 301 304 301 297 294 303 294 297 294 298 298 300 302 300 295 292 291 290 290 288 286 290 292 291
241 242 241 243 243 245 246 249 250 254 255 259 262 264 267 269 271 276 279 280 284 287 292 296 298 298 299 297 294 292 299 291 290 295 295 296 298 299 297 293 291 289 291 290 291 288 289 291 290
238 238 237 240 243 245 245 247 250 252 253 257 260 264 266 269 272 276 278 282 286 290 295 295 296 299 300 295 290 294 299 293 288 285 288 293 294 301 297 292 289 290 292 292 296 294 292 292 294
236 237 237 239 241 243 245 246 249 251 254 255 260 264 269 269 272 274 277 280 284 288 294 294 295 299 295 294 289 298 299 300 282 281 285 289 295 298 297 293 291 291 292 293 296 297 294 292 292
235 233 236 240 239 241 243 246 247 249 251 255 257 262 267 266 268 272 275 278 285 290 295 300 298 299 302 298 293 298 296 292 282 280 286 289 293 295 294 295 294 294 295 295 295 295 294 290 287
234 234 234 237 240 242 243 245 246 248 250 253 258 260 264 265 268 273 278 281 284 289 292 295 299 301 299 297 295 296 294 295 293 286 289 292 293 294 295 296 299 296 296 296 295 294 293 289 287
235 234 235 236 239 241 243 245 247 246 250 253 258 260 262 266 267 270 274 280 285 290 294 298 298 297 300 297 297 295 292 292 293 293 293 293 295 299 300 301 301 300 297 296 296 297 294 290 287
234 236 236 238 239 241 242 243 245 246 249 253 258 261 261 263 266 271 274 280 287 290 294 294 295 296 296 292 294 293 293 294 297 298 299 302 302 302 301 300 301 301 301 300 304 306 299 293 292
231 234 236 238 240 241 242 243 245 248 250 255 259 260 262 264 268 272 277 284 288 292 293 293 296 294 289 291 295 295 298 298 298 301 300 301 301 302 304 307 309 309 310 306 304 309 311 305 301
228 232 234 237 240 241 242 244 246 251 253 256 260 260 263 267 271 275 282 286 290 291 291 294 289 287 287 295 298 298 298 299 300 300 302 304 303 308 310 313 313 313 311 307 309 310 311 307 302
226 228 233 237 241 243 244 246 248 253 255 256 260 263 266 271 275 282 285 287 289 289 290 291 289 288 291 296 297 297 295 297 299 302 304 305 308 314 317 316 315 309 308 307 303 301 296 294 292
225 226 230 235 240 242 245 247 249 253 256 257 259 263 269 275 279 283 287 288 288 289 288 289 292 293 295 296 293 294 298 301 304 305 309 310 312 315 315 316 310 308 306 302 296 299 306 312 317
225 226 230 234 238 242 244 248 250 253 255 257 261 266 270 274 279 281 285 288 289 291 288 290 294 294 291 293 296 298 300 303 304 307 311 314 310 311 312 311 309 309 309 312 313 323 330 329 328
225 226 228 230 233 238 242 246 249 252 254 258 263 266 269 274 280 283 287 290 288 290 291 293 293 291 292 292 294 297 300 304 305 306 310 314 307 309 310 305 309 313 316 316 321 328 330 328 333
218 220 224 226 229 234 239 242 247 251 254 258 263 268 272 276 280 283 287 290 293 292 291 291 290 292 294 294 294 294 299 301 305 306 307 310 303 305 303 303 308 310 310 316 320 324 326 326 325
218 222 224 228 229 233 238 242 247 252 255 258 264 268 271 276 279 283 287 288 289 290 290 289 291 292 292 294 294 295 298 300 304 304 304 303 299 298 294 299 304 303 304 307 311 316 319 317 318
217 220 223 227 229 233 237 242 247 252 255 258 262 266 271 275 279 281 284 286 287 289 290 292 293 294 294 293 295 297 299 301 301 301 300 298 294 288 287 294 298 299 295 302 309 310 311 314 313
216 219 222 226 229 232 236 238 243 250 255 259 262 266 271 275 279 282 284 286 288 289 291 293 294 295 295 296 298 299 299 299 300 298 297 294 288 278 282 288 293 293 294 300 302 304 307 308 309
215 218 223 227 230 232 235 235 241 248 255 260 265 269 273 276 279 282 284 286 288 290 293 293 294 296 297 297 300 299 298 300 298 295 293 288 280 272 281 285 289 291 289 296 298 303 306 305 306
213 217 222 226 231 235 238 239 245 250 256 262 266 270 273 276 279 282 284 285 289 291 292 294 294 295 298 299 299 298 297 297 296 292 288 280 268 275 281 286 285 287 289 294 297 299 302 300 299
214 219 223 227 232 236 242 245 248 254 259 263 268 270 274 277 281 283 286 287 290 293 293 293 296 298 298 298 297 296 296 295 292 288 280 268 265 279 282 283 285 286 289 294 297 297 297 297 299
217 221 225 230 233 237 243 245 251 257 262 265 269 273 276 280 282 284 287 289 291 292 293 295 297 297 296 296 295 294 294 290 286 282 271 265 275 280 283 284 285 287 289 293 295 293 294 297 298
221 226 230 233 236 241 245 250 256 260 263 268 272 276 279 281 285 286 287 289 291 292 293 294 295 295 294 292 293 291 289 286 282 272 267 276 282 284 283 284 285 288 291 291 293 293 295 297 297
224 229 233 237 242 246 250 255 260 265 268 271 275 277 280 284 286 286 288 289 291 292 293 293 292 291 292 290 289 289 287 282 274 276 280 284 286 285 285 286 286 288 288 289 291 293 294 295 296
227 232 236 241 245 249 255 262 267 270 270 272 275 278 282 284 286 287 289 290 290 290 289 289 289 290 288 288 288 286 283 282 282 285 288 286 284 284 286 287 287 287 288 288 290 292 293 294 295
231 237 243 248 254 260 262 266 268 269 272 275 278 280 283 286 287 288 288 287 286 286 286 287 286 288 286 285 288 288 287 284 284 286 287 285 282 283 285 286 286 287 287 289 290 291 291 293 294
Height
10857 10861 10866 10871 10874 10876 10879 10880 10881 10883 10885 10888 10892 10891 10893 10894 10894 10895 10896 10896 10896 10895 10894 10894 10893 10892 10891 10889 10887 10886 10884 10883 10882 10881 10880 10878 10877 10875 10874 10872 10871 10870 10869 10868 10867 10866 10865 10864 10863
10849 10855 10860 10866 10869 10871 10873 10875 10876 10878 10880 10883 10887 10886 10888 10889 10889 10891 10891 10891 10891 10890 10890 10889 10888 10887 10886 10885 10883 10881 10879 10878 10877 10877 10876 10875 10873 10871 10870 10869 10867 10866 10864 10864 10863 10862 10860 10859 10857
10842 10849 10854 10860 10863 10864 10867 10869 10871 10872 10874 10877 10881 10882 10883 10883 10885 10886 10886 10886 10886 10886 10885 10885 10884 10883 10881 10879 10878 10876 10875 10874 10873 10872 10871 10869 10868 10867 10865 10864 10862 10860 10859 10858 10856 10855 10853 10852 10849
10833 10841 10848 10853 10855 10858 10860 10863 10865 10866 10868 10872 10874 10877 10878 10878 10880 10881 10882 10882 10882 10882 10881 10880 10879 10878 10876 10874 10872 10871 10869 10869 10868 10867 10866 10864 10862 10860 10858 10856 10855 10852 10851 10849 10848 10846 10845 10843 10840
10825 10834 10842 10845 10847 10851 10854 10857 10859 10860 10863 10866 10868 10872 10873 10873 10875 10876 10876 10877 10877 10876 10876 10875 10874 10872 10870 10868 10867 10865 10864 10864 10862 10861 10859 10856 10855 10853 10851 10848 10846 10844 10841 10839 10837 10836 10834 10831 10829
10817 10827 10834 10835 10838 10843 10847 10850 10853 10855 10857 10860 10862 10866 10867 10868 10869 10870 10871 10871 10871 10871 10870 10869 10868 10866 10864 10863 10862 10860 10859 10858 10856 10854 10851 10849 10847 10845 10842 10840 10837 10835 10832 10829 10826 10823 10821 10818 10816
10808 10818 10824 10825 10832 10836 10839 10842 10846 10849 10852 10854 10857 10860 10861 10863 10864 10865 10865 10865 10865 10866 10865 10863 10862 10860 10859 10857 10855 10855 10854 10852 10850 10847 10844 10841 10838 10836 10834 10831 10827 10824 10821 10817 10814 10810 10806 10803 10800
10799 10809 10815 10819 10822 10827 10831 10835 10839 10843 10846 10849 10851 10854 10856 10858 10859 10860 10860 10860 10860 10860 10859 10858 10856 10854 10853 10851 10849 10848 10847 10845 10843 10839 10836 10834 10831 10828 10824 10820 10817 10813 10809 10805 10800 10795 10791 10787 10783
10788 10799 10808 10809 10813 10817 10823 10827 10832 10836 10840 10843 10846 10849 10851 10852 10853 10854 10854 10854 10854 10853 10853 10852 10850 10848 10846 10844 10842 10840 10838 10835 10833 10831 10828 10825 10822 10817 10813 10809 10805 10800 10795 10790 10785 10779 10773 10769 10764
10778 10791 10795 10799 10804 10809 10815 10820 10825 10830 10834 10837 10841 10844 10845 10846 10848 10848 10848 10849 10849 10848 10846 10845 10843 10840 10838 10836 10833 10832 10828 10826 10824 10822 10819 10815 10810 10806 10803 10798 10793 10787 10781 10775 10768 10761 10755 10749 10745
10771 10780 10783 10789 10795 10800 10807 10813 10818 10823 10827 10831 10835 10837 10839 10840 10841 10842 10842 10843 10842 10842 10840 10838 10835 10832 10830 10827 10825 10822 10817 10815 10814 10812 10809 10804 10800 10794 10789 10784 10779 10772 10765 10758 10751 10743 10736 10730 10725
10761 10768 10774 10779 10786 10792 10799 10805 10811 10816 10822 10824 10828 10830 10831 10832 10834 10836 10836 10836 10836 10835 10832 10829 10826 10824 10822 10818 10816 10812 10807 10805 10803 10800 10797 10793 10789 10783 10777 10771 10764 10756 10750 10742 10736 10729 10721 10714 10711
10751 10758 10764 10769 10776 10784 10791 10797 10805 10811 10816 10818 10821 10822 10823 10826 10828 10830 10830 10830 10829 10827 10823 10820 10818 10816 10813 10809 10808 10804 10799 10796 10793 10790 10787 10783 10777 10770 10764 10757 10748 10741 10735 10729 10724 10718 10709 10703 10701
10742 10749 10755 10761 10769 10777 10783 10791 10800 10805 10810 10812 10813 10814 10816 10819 10821 10822 10823 10823 10822 10818 10814 10812 10810 10808 10805 10802 10799 10794 10790 10786 10783 10779 10775 10772 10764 10757 10750 10743 10735 10728 10723 10719 10713 10707 10702 10697 10694
10731 10739 10747 10754 10762 10770 10777 10787 10793 10797 10802 10805 10806 10807 10809 10811 10814 10815 10816 10816 10814 10810 10807 10804 10803 10799 10796 10793 10790 10787 10781 10777 10772 10769 10765 10760 10751 10745 10738 10731 10725 10719 10714 10710 10704 10700 10694 10691 10688
10722 10731 10741 10750 10757 10763 10771 10778 10785 10790 10794 10797 10799 10800 10802 10804 10806 10806 10807 10807 10806 10803 10799 10797 10794 10791 10787 10785 10782 10778 10772 10767 10762 10757 10753 10749 10739 10734 10728 10722 10717 10711 10706 10702 10697 10692 10688 10685 10683
10715 10730 10740 10744 10751 10757 10764 10771 10778 10782 10786 10789 10791 10793 10795 10797 10799 10798 10799 10799 10797 10795 10792 10789 10786 10783 10779 10776 10773 10768 10763 10757 10752 10746 10742 10739 10731 10725 10719 10715 10710 10704 10700 10695 10690 10687 10684 10681 10678
10716 10725 10733 10738 10743 10749 10757 10764 10770 10775 10779 10782 10784 10786 10787 10789 10789 10790 10790 10790 10789 10786 10783 10780 10777 10774 10771 10767 10762 10757 10753 10748 10743 10737 10732 10729 10721 10717 10711 10706 10702 10697 10691 10688 10685 10682 10680 10678 10675
10700 10710 10720 10727 10735 10742 10749 10757 10763 10768 10772 10775 10778 10779 10779 10781 10780 10780 10781 10781 10780 10777 10774 10772 10768 10765 10761 10756 10752 10748 10744 10739 10732 10728 10722 10720 10712 10707 10703 10699 10694 10689 10685 10682 10679 10675 10673 10670 10668
10693 10704 10714 10721 10729 10736 10745 10751 10757 10763 10766 10769 10770 10771 10771 10772 10772 10772 10772 10772 10770 10768 10765 10762 10759 10755 10751 10746 10742 10738 10733 10728 10723 10718 10712 10709 10702 10696 10693 10690 10686 10682 10678 10674 10671 10668 10665 10662 10659
10686 10697 10706 10715 10723 10732 10739 10747 10752 10756 10759 10761 10762 10763 10763 10763 10764 10763 10762 10761 10759 10757 10754 10751 10749 10745 10740 10734 10731 10726 10722 10716 10710 10706 10700 10696 10691 10687 10683 10681 10677 10673 10670 10667 10664 10660 10657 10654 10651
10679 10689 10699 10708 10717 10727 10734 10742 10745 10749 10752 10753 10754 10755 10755 10755 10754 10754 10752 10750 10747 10745 10742 10739 10737 10734 10727 10722 10719 10714 10709 10703 10697 10692 10687 10683 10679 10676 10673 10671 10668 10665 10662 10659 10656 10653 10649 10645 10642
10672 10684 10693 10702 10711 10720 10728 10735 10739 10741 10742 10743 10746 10747 10747 10746 10745 10743 10740 10739 10736 10733 10730 10726 10724 10720 10715 10708 10704 10699 10693 10688 10682 10677 10673 10670 10667 10665 10663 10661 10658 10656 10653 10650 10647 10644 10640 10635 10632
10667 10678 10687 10696 10705 10716 10722 10730 10731 10733 10732 10735 10736 10737 10737 10736 10734 10732 10730 10728 10725 10721 10717 10713 10710 10706 10700 10694 10688 10682 10676 10671 10665 10662 10658 10657 10655 10654 10652 10650 10648 10646 10643 10640 10637 10633 10629 10624 10620
10663 10673 10682 10692 10701 10711 10713 10721 10722 10723 10724 10725 10727 10727 10726 10725 10722 10720 10718 10716 10712 10708 10703 10698 10695 10690 10684 10678 10672 10665 10659 10654 10650 10647 10645 10643 10644 10643 10641 10638 10636 10635 10632 10629 10625 10620 10617 10612 10607
10659 10669 10679 10688 10696 10702 10704 10716 10715 10715 10715 10715 10716 10715 10714 10712 10710 10708 10706 10702 10698 10693 10688 10683 10678 10674 10667 10661 10654 10648 10642 10638 10636 10634 10633 10633 10632 10632 10630 10627 10624 10622 10620 10616 10612 10606 10603 10599 10593
10657 10667 10675 10683 10690 10696 10702 10707 10707 10706 10705 10705 10704 10704 10701 10699 10698 10695 10691 10687 10683 10678 10672 10667 10662 10656 10650 10644 10638 10632 10627 10625 10624 10623 10623 10623 10622 10620 10619 10616 10612 10609 10606 10602 10598 10592 10588 10584 10576
10653 10662 10670 10677 10684 10691 10695 10697 10697 10696 10695 10694 10692 10690 10688 10687 10684 10680 10676 10672 10668 10662 10657 10650 10643 10639 10634 10628 10623 10618 10615 10614 10614 10614 10614 10612 10611 10608 10605 10602 10598 10595 10591 10587 10582 10576 10570 10565 10558
10652 10659 10666 10671 10678 10684 10689 10691 10687 10684 10681 10680 10680 10679 10677 10674 10669 10665 10660 10656 10651 10645 10638 10633 10627 10624 10619 10615 10611 10608 10607 10606 10606 10605 10603 10601 10598 10594 10591 10586 10582 10578 10574 10569 10564 10559 10552 10546 10539
10651 10657 10664 10670 10676 10680 10682 10683 10674 10667 10667 10668 10669 10667 10662 10658 10654 10648 10643 10637 10631 10627 10622 10618 10614 10611 10607 10604 10603 10601 10600 10598 10596 10593 10590 10586 10582 10579 10574 10570 10565 10560 10555 10549 10545 10540 10533 10526 10519